BEIDOU 5 (C06)

Last updated on Oct. 29, 2020, 5:53 a.m. UTC

1 36828U 10036A   20301.57480012 -.00000131  00000-0  10000-3 0  9990
2 36828  54.1646 181.7569 0100202 234.3715 306.9896  1.00275278 37577
UTC
Height (km)
Latitude
Longitude
Inclination
Orbital Period
UTC large
Height (km)
Speed (km/s)
/
Latitude / Longitude
Inclination (degrees)
Orbital Period (minutes)
Azimuth
Elevation
Range (km)
Doppler Factor
iOS Compass Heading
iOS Angle

Next 30 passes for location: Hong Kong

Rise time Rise Azimuth (degrees) Set time Set Azimuth (degrees) Duration Max altitude (degrees)

No matching passes for this satellites